sat.trackr.live / text

‹ back to catalog

STARLINK-31392

NORAD 59530 · 2024-073V

PAYLOAD ACTIVE UNKNOWN

§ Identity

Operator
Country
US
Launch date
2024-04-17
Launch site
AFETR
Launch vehicle
Mass (kg)
RCS (m²)

Purposes: comms

External: N2YO · Heavens-Above · Gunter

§ Orbital elements

Epoch: 2026-05-24T23:40:06.391776Z

Period
94.27 min
Inclination
43.0016°
Eccentricity
0.0001463
Mean motion
15.27580926 rev/d
Perigee alt
482.0 km
Apogee alt
484.1 km
Semi-major
6,861.2 km
B*
-2.2795e-4
RAAN
247.1784°
Arg perigee
268.5307°
Mean anomaly
91.5377°
Rev number
11,784

§ Raw data

STARLINK-313921 59530U 24073V   26144.98618509 -.00006530  00000+0 -22795-3 0  99942 59530  43.0016 247.1784 0001463 268.5307  91.5377 15.27580926117844

JSON: /api/v1/satellites/59530 · /tle

For live sub-satellite position, see the globe view (requires WebGL).

§ Visibility from observer

Set your observer location to see the next 7 days of passes ≥ 10°. The values pass through the URL so the page stays shareable.

No JS? Fill the form by hand. The geolocation button needs JavaScript.